Regional Weather Roundup
Issued by NWS

Home | Current Version | Previous Version | Graphics & Text | Print | Product List | Glossary On
Versions: 1 2 3 4 5 6 7 8 9 10 11 12 13 14 15 16 17 18 19 20 21 22 23 24 25 26 27 28 29 30 31 32 33 34 35 36 37 38 39 40 41 42 43 44 45 46 47 48 49 50
000
ASUS43 KDTX 211101
RWRMI
MICHIGAN HOURLY REGIONAL WEATHER ROUNDUP
NATIONAL WEATHER SERVICE DETROIT/PONTIAC MI
600 AM EST SAT JAN 21 2017

NOTE: "FAIR" INDICATES FEW OR NO CLOUDS BELOW 12,000 FEET WITH NO
SIGNIFICANT WEATHER AND/OR OBSTRUCTION TO VISIBILITY.

MIZ047>049-052>055-059>063-066>070-074>076-081>083-211200-
SOUTHEAST LOWER MICHIGAN

CITY           SKY/WX    TMP DP  RH WIND       PRES   REMARKS
ADRIAN         FOG       40  40 100 E3        29.69F VSB 1/4
ALMA           FOG       35  35  99 E3        29.66F VSB 3/4
ANN ARBOR      FOG       42  42 100 NE3       29.69F VSB 1/2
BAD AXE        FOG       35  35 100 SE6       29.73F VSB 3/4 WCI  30
CARO           CLOUDY    37  37 100 E3        29.69F FOG
DETROIT CITY   FOG       39  39 100 E5        29.71F VSB 1/2
DETROIT        FOG       42  42 100 CALM      29.71S VSB 1/2
FLINT          CLOUDY    38  38 100 E6        29.69F FOG     WCI  33
GROSSE ILE     CLOUDY    42  41  99 E5        29.70F FOG
HILLSDALE      CLOUDY    45  45 100 S7        29.66F FOG
HOWELL         CLOUDY    43  42  97 SE7       29.67S FOG

CITY           SKY/WX    TMP DP  RH WIND       PRES   REMARKS
JACKSON        CLOUDY    46  44  93 SE7       29.66F FOG
LAMBERTVILLE   MOCLDY    48  45  91 S3        29.69F FOG
LANSING        CLOUDY    44  41  89 SE8       29.66F FOG
LAPEER         FOG       38  38 100 SE9       29.70F VSB 1   WCI  31
MASON          CLOUDY    44  44 100 S7        29.66S FOG
MONROE         CLOUDY    41  41 100 S6        29.68F FOG
MT. CLEMENS    FOG       37  37 100 E3        29.70F VSB 3/4
PONTIAC        FOG       40  38  93 SE6       29.69F VSB 1/8
PORT HOPE        N/A     34  34 100 SE9       29.71F WCI  27
PORT HURON     FOG       37  37 100 SE3       29.73F VSB 1/4
TRI CITIES     FOG       35  35 100 E8        29.68F VSB 1/2 WCI  29
MIDLAND        CLOUDY    35  34  97 E5        29.67F FOG     WCI  31
TROY           FOG       39  38  96 NE3       29.73F VSB 1/2
SAGINAW HB     DRIZZLE   36  34  93 E5        29.68F WCI  32
$$
MIZ043>046-050>051-056>058-064>065-071>073-077>080-211200-
SOUTHWEST LOWER MICHIGAN

CITY           SKY/WX    TMP DP  RH WIND       PRES   REMARKS
BATTLE CREEK   CLOUDY    48  47  96 SE9       29.63F
BENTON HARBOR  MOCLDY    48  46  93 SE6       29.59F
BIG RAPIDS     MIX PCPN  33  33  97 E5        29.64S WCI  29
COLDWATER      CLOUDY    47  47 100 SE9       29.65S FOG
FREMONT        CLOUDY    36  36 100 E8        29.61F FOG     WCI  30
HOLLAND        CLOUDY    44  43  96 E5        29.60F
GRAND RAPIDS   FOG       39  38  96 E8        29.62F VSB 1   WCI  33
IONIA          FOG       37  36  99 NE5       29.64S VSB 1   WCI  33
KALAMAZOO      MOCLDY    47  44  90 S6        29.64S
LUDINGTON      LGT RAIN  36  36 100 E6        29.60F WCI  31
MARSHALL       CLOUDY    48  47  99 SE5       29.64F
MOUNT PLEASANT LGT RAIN  34  34  99 CALM      29.66F
MUSKEGON       CLOUDY    40  39  97 E6        29.61F FOG
SOUTH HAVEN    MOCLDY    48  47  98 SE5       29.59F FOG
$$
MIZ016>042-211200-
NORTHERN LOWER MICHIGAN

CITY           SKY/WX    TMP DP  RH WIND       PRES   REMARKS
ALPENA         FOG       32  30  92 SE3       29.71S VSB 1/4
BEAVER ISLAND  CLOUDY    34  34 100 SE3       29.66S FOG
BELLAIRE       CLOUDY    33  32  98 CALM      29.65F FOG
CADILLAC       FOG       33  32  96 E5        29.62F VSB 3/4 WCI  29
CHARLEVOIX     CLOUDY    34  34 100 E6        29.68S FOG     WCI  28
FRANKFORT      CLOUDY    36  35  96 CALM      29.62S
GAYLORD        CLOUDY    34  30  85 SE5       29.64F FOG     WCI  30
GRAYLING       CLOUDY    33  33  99 SE5       29.67S FOG     WCI  29
HARBOR SPRINGS CLOUDY    33  33 100 NE7       29.66F FOG     WCI  26
HOUGHTON LAKE  CLOUDY    33  32  96 E5        29.66S FOG     WCI  29
MANISTEE       MIX PCPN  34  34 100 E8        29.61F FOG     WCI  27
OSCODA         FOG       33  33  98 S7        29.70F VSB 1/2 WCI  27
PELLSTON       CLOUDY    33  32  96 CALM      29.68S FOG
ROGERS CITY    PTCLDY    33  32  96 S5        29.71S FOG     WCI  28
TRAVERSE CITY  CLOUDY    35  32  88 SE5       29.62F WCI  31
$$
MIZ007>008-015-211200-
EASTERN UPPER MICHIGAN

CITY           SKY/WX    TMP DP  RH WIND       PRES   REMARKS
KINROSS        CLOUDY   N/A N/A N/A E7        29.68S FOG
MACKINAC ISLAN CLOUDY    32  32 100 SE6       29.68R FOG     WCI  27
NEWBERRY       FOG       32  32  99 E5        29.64S VSB 1/4 WCI  27
S. S. MARIE    CLOUDY    33  32  96 E5        29.68F WCI  29
MUNISING         N/A     34  33  96 S5        29.63S WCI  30
$$
MIZ004>006-011>014-085-211200-
CENTRAL UPPER MICHIGAN

CITY           SKY/WX    TMP DP  RH WIND       PRES   REMARKS
MANISTIQUE     FOG       34  33  97 SE5       29.64S VSB 1/4 WCI  30
ESCANABA       LGT RAIN  33  32  96 NE3       29.63F VSB 3/4
SAWYER-GWINN   CLOUDY    32  32  99 S7        29.60S FOG     WCI  25
$$
MIZ001>003-009>011-084-211200-
WESTERN UPPER MICHIGAN

CITY           SKY/WX    TMP DP  RH WIND       PRES   REMARKS
IRON MOUNTAIN  FOG       32  30  92 E3        29.58F VSB 1/4
HOUGHTON       FOG       34  32  92 E5        29.57F VSB 1/4 WCI  30
COPPER HARBOR    N/A     36  35  96 SW5       29.60F WCI  32
IRONWOOD       CLOUDY    35  33  92 SE6       29.54F WCI  30
$$

ABBREVIATIONS USED IN REMARKS
   TC - TEMPERATURE IN CELSIUS
  WCI - WIND CHILL INDEX
   HX - HEAT INDEX
  VSB - VISIBILITY





USA.gov is the U.S. government's official web portal to all federal, state and local government web resources and services.